Location: Newark
(41.0400°S, 62.7845°W)
Time: 18:41:29
(UTC+00:00)

X-37B - Pass Details

Date: 24 October 2021
Orbit: 330 x 341 km, 45.0° (Epoch: 20 November)

Event Time Altitude Azimuth Distance (km) Brightness Sun altitude
Exits shadow 07:42:34 34° 248° (WSW) 589 1.2 -15.6°
Maximum altitude 07:43:28 49° 194° (SSW) 446 0.9 -15.5°
Drops below altitude 10° 07:46:17 10° 117° (ESE) 1,285 4.6 -15.0°
Sets 07:48:20 0° 111° (ESE) 2,126 6.1 -14.7°
